When you browse on this site, cookies collect data to enhance your experience and personalize the content and advertising you see.
Visit our Privacy Policy to learn more. By continuing to use the site, you agree to this use of cookies and data.
EN

Hourly Weather Miyakitamak

Today, 25 September, Friday

Time Temperature Precipitation Wind Pressure Humidity
00:00 +7°C° 0 mm 0 mps 759 mmHg 80%
01:00 +7°C° 0 mm 0 mps 759 mmHg 81%
02:00 +6°C° 0 mm 0 mps 760 mmHg 82%
03:00 +6°C° 0 mm 0 mps 760 mmHg 82%
04:00 +6°C° 0 mm 0 mps 760 mmHg 81%
05:00 +6°C° 0 mm 0 mps 761 mmHg 80%
06:00 +6°C° 0 mm 0 mps 761 mmHg 80%
07:00 +7°C° 0 mm 1 mps 761 mmHg 79%
08:00 +9°C° 0 mm 1 mps 761 mmHg 72%
09:00 +11°C° 0 mm 1 mps 761 mmHg 65%
10:00 +13°C° 0 mm 1 mps 761 mmHg 58%
11:00 +14°C° 0 mm 2 mps 761 mmHg 54%
12:00 +15°C° 0 mm 2 mps 761 mmHg 50%
13:00 +16°C° 0 mm 2 mps 760 mmHg 46%
14:00 +16°C° 0 mm 2 mps 761 mmHg 46%
15:00 +16°C° 0 mm 2 mps 761 mmHg 46%
16:00 +16°C° 0 mm 2 mps 761 mmHg 47%
17:00 +14°C° 0 mm 2 mps 760 mmHg 52%
18:00 +13°C° 0 mm 1 mps 760 mmHg 58%
19:00 +11°C° 0 mm 1 mps 760 mmHg 64%
20:00 +10°C° 0 mm 1 mps 761 mmHg 66%
21:00 +10°C° 0 mm 1 mps 761 mmHg 67%
22:00 +9°C° 0 mm 1 mps 761 mmHg 69%
23:00 +9°C° 0 mm 1 mps 761 mmHg 70%

Tomorrow, 26 September, Saturday

Time Temperature Precipitation Wind Pressure Humidity
00:00 +9°C° 0 mm 1 mps 761 mmHg 71%
01:00 +8°C° 0 mm 1 mps 761 mmHg 72%
02:00 +8°C° 0 mm 1 mps 761 mmHg 73%
03:00 +8°C° 0 mm 1 mps 761 mmHg 74%
04:00 +8°C° 0 mm 1 mps 762 mmHg 75%
05:00 +8°C° 0 mm 1 mps 762 mmHg 75%
06:00 +8°C° 0 mm 1 mps 762 mmHg 74%
07:00 +8°C° 0 mm 1 mps 762 mmHg 74%
08:00 +10°C° 0 mm 1 mps 762 mmHg 67%
09:00 +12°C° 0 mm 1 mps 762 mmHg 60%
10:00 +14°C° 0 mm 1 mps 762 mmHg 53%
11:00 +15°C° 0 mm 1 mps 762 mmHg 50%
12:00 +16°C° 0 mm 1 mps 762 mmHg 47%
13:00 +18°C° 0 mm 1 mps 762 mmHg 44%
14:00 +18°C° 0 mm 1 mps 762 mmHg 45%
15:00 +18°C° 0 mm 1 mps 762 mmHg 45%
16:00 +18°C° 0 mm 1 mps 762 mmHg 45%
17:00 +14°C° 0 mm 0 mps 762 mmHg 51%
18:00 +13°C° 0 mm 0 mps 762 mmHg 56%
19:00 +11°C° 0 mm 0 mps 762 mmHg 61%
20:00 +10°C° 0 mm 0 mps 762 mmHg 63%
21:00 +10°C° 0 mm 0 mps 762 mmHg 65%
22:00 +10°C° 0 mm 0 mps 762 mmHg 66%
23:00 +9°C° 0 mm 0 mps 762 mmHg 67%

Day after tomorrow, 27 September, Sunday

Time Temperature Precipitation Wind Pressure Humidity
00:00 +9°C° 0 mm 0 mps 762 mmHg 68%
01:00 +9°C° 0 mm 0 mps 763 mmHg 69%
02:00 +8°C° 0 mm 0 mps 763 mmHg 70%
03:00 +8°C° 0 mm 0 mps 763 mmHg 72%
04:00 +8°C° 0 mm 0 mps 764 mmHg 73%
05:00 +8°C° 0 mm 0 mps 763 mmHg 73%
06:00 +8°C° 0 mm 0 mps 763 mmHg 73%
07:00 +8°C° 0 mm 0 mps 763 mmHg 73%
08:00 +10°C° 0 mm 0 mps 764 mmHg 67%
09:00 +12°C° 0 mm 0 mps 764 mmHg 61%
10:00 +14°C° 0 mm 0 mps 764 mmHg 55%
11:00 +15°C° 0 mm 0 mps 764 mmHg 52%
12:00 +16°C° 0 mm 0 mps 763 mmHg 49%
13:00 +17°C° 0 mm 0 mps 763 mmHg 46%
14:00 +17°C° 0 mm 0 mps 763 mmHg 46%
15:00 +17°C° 0 mm 0 mps 763 mmHg 46%
16:00 +19°C° 0 mm 1 mps 763 mmHg 46%
17:00 +15°C° 0 mm 0 mps 763 mmHg 51%
18:00 +13°C° 0 mm 0 mps 763 mmHg 56%
19:00 +12°C° 0 mm 0 mps 763 mmHg 61%
20:00 +11°C° 0 mm 0 mps 763 mmHg 63%
21:00 +11°C° 0 mm 0 mps 763 mmHg 65%
22:00 +10°C° 0 mm 0 mps 763 mmHg 67%
23:00 +10°C° 0 mm 0 mps 763 mmHg 68%

28 September, Monday

Time Temperature Precipitation Wind Pressure Humidity
00:00 +10°C° 0 mm 0 mps 763 mmHg 69%
01:00 +10°C° 0 mm 0 mps 763 mmHg 70%
02:00 +9°C° 0 mm 0 mps 763 mmHg 70%
03:00 +9°C° 0 mm 0 mps 763 mmHg 71%
04:00 +9°C° 0 mm 0 mps 763 mmHg 71%
05:00 +9°C° 0 mm 0 mps 763 mmHg 71%
06:00 +9°C° 0 mm 0 mps 763 mmHg 72%
07:00 +9°C° 0 mm 0 mps 764 mmHg 72%
08:00 +11°C° 0 mm 0 mps 763 mmHg 67%
09:00 +12°C° 0 mm 0 mps 763 mmHg 63%
10:00 +14°C° 0 mm 1 mps 763 mmHg 58%
11:00 +15°C° 0 mm 1 mps 763 mmHg 55%
12:00 +16°C° 0 mm 1 mps 763 mmHg 52%
13:00 +18°C° 0 mm 1 mps 763 mmHg 48%
14:00 +18°C° 0 mm 1 mps 763 mmHg 48%
15:00 +18°C° 0 mm 1 mps 763 mmHg 48%
16:00 +19°C° 0 mm 1 mps 763 mmHg 48%
17:00 +16°C° 0 mm 1 mps 763 mmHg 54%
18:00 +14°C° 0 mm 1 mps 763 mmHg 60%
19:00 +12°C° 0 mm 1 mps 763 mmHg 66%
20:00 +11°C° 0 mm 0 mps 763 mmHg 68%
21:00 +10°C° 0 mm 0 mps 763 mmHg 70%
22:00 +10°C° 0 mm 0 mps 763 mmHg 72%
23:00 +10°C° 0 mm 0 mps 763 mmHg 74%

29 September, Tuesday

Time Temperature Precipitation Wind Pressure Humidity
00:00 +9°C° 0 mm 0 mps 763 mmHg 76%
01:00 +9°C° 0 mm 0 mps 763 mmHg 78%
02:00 +9°C° 0 mm 0 mps 763 mmHg 79%
03:00 +8°C° 0 mm 0 mps 763 mmHg 80%
04:00 +8°C° 0 mm 0 mps 763 mmHg 81%
05:00 +8°C° 0 mm 0 mps 763 mmHg 82%
06:00 +8°C° 0 mm 0 mps 763 mmHg 82%
07:00 +9°C° 0 mm 1 mps 764 mmHg 82%
08:00 +11°C° 0 mm 1 mps 763 mmHg 76%
09:00 +12°C° 0 mm 1 mps 763 mmHg 70%
10:00 +14°C° 0 mm 2 mps 763 mmHg 64%
11:00 +15°C° 0 mm 2 mps 763 mmHg 60%
12:00 +16°C° 0 mm 2 mps 763 mmHg 56%
13:00 +17°C° 0 mm 2 mps 763 mmHg 52%
14:00 +17°C° 0 mm 2 mps 763 mmHg 52%
15:00 +18°C° 0 mm 2 mps 762 mmHg 53%
16:00 +18°C° 0 mm 2 mps 762 mmHg 53%
17:00 +16°C° 0 mm 2 mps 762 mmHg 59%
18:00 +14°C° 0 mm 1 mps 762 mmHg 65%
19:00 +13°C° 0 mm 1 mps 762 mmHg 71%
20:00 +12°C° 0 mm 1 mps 762 mmHg 73%
21:00 +12°C° 0 mm 1 mps 762 mmHg 76%
22:00 +11°C° 0 mm 1 mps 762 mmHg 78%
23:00 +11°C° 0 mm 1 mps 762 mmHg 79%

30 September, Wednesday

Time Temperature Precipitation Wind Pressure Humidity
00:00 +11°C° 0 mm 1 mps 762 mmHg 80%
01:00 +10°C° 0 mm 1 mps 762 mmHg 81%
02:00 +10°C° 0 mm 1 mps 762 mmHg 82%
03:00 +10°C° 0 mm 1 mps 762 mmHg 83%
04:00 +10°C° 0 mm 1 mps 762 mmHg 84%
05:00 +10°C° 0 mm 1 mps 762 mmHg 84%
06:00 +10°C° 0 mm 1 mps 762 mmHg 83%
07:00 +9°C° 0 mm 0 mps 762 mmHg 83%
08:00 +12°C° 0 mm 1 mps 762 mmHg 77%
09:00 +13°C° 0 mm 1 mps 762 mmHg 71%
10:00 +15°C° 0 mm 2 mps 762 mmHg 65%
11:00 +16°C° 0 mm 2 mps 762 mmHg 62%
12:00 +17°C° 0 mm 2 mps 762 mmHg 58%
13:00 +18°C° 0 mm 2 mps 762 mmHg 55%
14:00 +18°C° 0 mm 2 mps 762 mmHg 56%
15:00 +18°C° 0 mm 2 mps 762 mmHg 56%
16:00 +18°C° 0 mm 2 mps 761 mmHg 57%
17:00 +16°C° 0 mm 2 mps 761 mmHg 63%
18:00 +15°C° 0 mm 1 mps 761 mmHg 68%
19:00 +13°C° 0 mm 1 mps 761 mmHg 74%
20:00 +13°C° 0 mm 1 mps 761 mmHg 76%
21:00 +12°C° 0 mm 1 mps 761 mmHg 78%
22:00 +12°C° 0 mm 1 mps 762 mmHg 80%
23:00 +11°C° 0 mm 1 mps 762 mmHg 82%
Show more